Anaktuvuk Pass, AK

4:35 AM AKST on February 24, 2017 (GMT -0900)
Anaktuvuk Pass

Weather History for PAKP - December, 2012

Change the Weather History Date:

Sunday, December 30, 2012

  Actual Average Record
Temperature  
Mean Temperature -18 °F -  
Max Temperature -13 °F -3 °F 30 °F (2015)
Min Temperature -22 °F -14 °F -29 °F (1998)
Degree Days  
Heating Degree Days 82    
Moisture  
Dew Point -27 °F    
Average Humidity 62    
Maximum Humidity 91    
Minimum Humidity 58    
Precipitation  
Precipitation 0.00 in - - ()
Sea Level Pressure  
Sea Level Pressure 29.44 in    
Wind  
Wind Speed 9 mph (NNE)    
Max Wind Speed 17 mph    
Max Gust Speed 22 mph    
Visibility 6 miles    
Events      
Averages and records for this station are not official NWS values.
T = Trace of Precipitation, MM = Missing Value Source: NWS Daily Summary

Daily Weather History Graph

Daily Weather History Graph

Search for Another Location

Airport or City:

Trip Planner

Search our weather history database for the weather conditions in past years. The results will help you decide how hot, cold, wet, or windy it might be!

Date:

Astronomy

Dec. 30, 2012 Rise Set
Actual Time 12:37 PM AKST 1:42 PM AKST
Civil Twilight 10:26 AM AKST 3:53 PM AKST
Nautical Twilight 8:58 AM AKST 5:21 PM AKST
Astronomical Twilight 7:46 AM AKST 6:33 PM AKST
Moon 6:54 PM AKST (12/30) 11:29 AM AKST (12/30)
Length of Visible Light 5h 26m
Length of Day
1h 04m
Waning Gibbous, 94% of the Moon is Illuminated
Dec 30
Waning Gibbous
Jan 4
Last Quarter
Jan 11
New
Jan 18
First Quarter
Jan 26
Full

Hourly Weather History & Observations

Time (AKST) Temp. Windchill Dew Point Humidity Pressure Visibility Wind Dir Wind Speed Gust Speed Precip Events Conditions
12:16 AM -14.8 °F -24.8 °F -25.6 °F 58% 29.52 in 10.0 mi North 3.5 mph - N/A   Mostly Cloudy
12:36 AM -14.8 °F -27.2 °F -23.8 °F 64% 29.51 in 10.0 mi NNE 4.6 mph - N/A   Mostly Cloudy
12:56 AM -14.8 °F -29.1 °F -23.8 °F 64% 29.51 in 10.0 mi NNE 5.8 mph - N/A   Overcast
1:16 AM -13.0 °F -28.6 °F -22.0 °F 64% 29.51 in 10.0 mi NNE 6.9 mph - N/A   Overcast
1:36 AM -13.0 °F -27.0 °F -22.0 °F 64% 29.50 in 10.0 mi NNE 5.8 mph - N/A   Overcast
1:56 AM -13.0 °F -28.6 °F -22.0 °F 64% 29.50 in 10.0 mi North 6.9 mph - N/A   Overcast
2:16 AM -13.0 °F -28.6 °F -23.8 °F 59% 29.49 in 10.0 mi NNE 6.9 mph - N/A   Overcast
2:36 AM -14.8 °F -29.1 °F -23.8 °F 64% 29.49 in 10.0 mi NNE 5.8 mph - N/A   Scattered Clouds
3:16 AM -14.8 °F -30.8 °F -23.8 °F 64% 29.48 in 10.0 mi NNE 6.9 mph - N/A   Clear
3:36 AM -14.8 °F -34.6 °F -25.6 °F 58% 29.48 in 10.0 mi NNE 10.4 mph - N/A   Mostly Cloudy
3:56 AM -16.6 °F -34.4 °F -27.4 °F 58% 29.48 in 10.0 mi NNE 8.1 mph - N/A   Mostly Cloudy
4:16 AM -16.6 °F -34.4 °F -27.4 °F 58% 29.48 in 10.0 mi NNE 8.1 mph - N/A   Overcast
4:36 AM -16.6 °F -35.7 °F -27.4 °F 58% 29.48 in 10.0 mi NNE 9.2 mph - N/A   Mostly Cloudy
4:56 AM -18.4 °F -39.1 °F -27.4 °F 63% 29.48 in 10.0 mi North 10.4 mph - N/A   Clear
5:16 AM -18.4 °F -36.6 °F -29.2 °F 58% 29.48 in 10.0 mi North 8.1 mph - N/A   Clear
5:36 AM -20.2 °F -37.3 °F - N/A% 29.48 in 10.0 mi North 6.9 mph - N/A   Clear
5:56 AM -20.2 °F -38.8 °F - N/A% 29.46 in 10.0 mi NNE 8.1 mph - N/A   Clear
6:16 AM -20.2 °F -38.8 °F - N/A% 29.46 in 10.0 mi NNE 8.1 mph - N/A   Clear
6:36 AM -20.2 °F -40.1 °F - N/A% 29.45 in 10.0 mi NNE 9.2 mph - N/A   Clear
6:56 AM -20.2 °F -38.8 °F - N/A% 29.45 in 6.0 mi NNE 8.1 mph - N/A   Clear
7:16 AM -20.2 °F -40.1 °F - N/A% 29.46 in 7.0 mi North 9.2 mph - N/A   Clear
7:36 AM -20.2 °F -41.3 °F - N/A% 29.45 in 5.0 mi NNE 10.4 mph 16.1 mph N/A   Clear
7:56 AM -20.2 °F -43.4 °F - N/A% 29.44 in 5.0 mi NNE 12.7 mph - N/A   Clear
8:16 AM -18.4 °F -40.2 °F -27.4 °F 63% 29.44 in 4.0 mi NNE 11.5 mph - N/A   Clear
8:36 AM -20.2 °F -40.1 °F - N/A% 29.45 in 7.0 mi North 9.2 mph - N/A   Clear
8:56 AM -20.2 °F -43.4 °F - N/A% 29.45 in 9.0 mi North 12.7 mph - N/A   Scattered Clouds
9:16 AM -20.2 °F -42.4 °F - N/A% 29.44 in 5.0 mi North 11.5 mph 16.1 mph N/A   Mostly Cloudy
9:36 AM -22.0 °F -44.7 °F - N/A% 29.46 in 10.0 mi NNE 11.5 mph - N/A   Mostly Cloudy
9:56 AM -22.0 °F -44.7 °F - N/A% 29.46 in 5.0 mi NNE 11.5 mph - N/A   Overcast
10:16 AM -22.0 °F -44.7 °F - N/A% 29.46 in 8.0 mi NNE 11.5 mph - N/A   Scattered Clouds
10:36 AM -22.0 °F -44.7 °F - N/A% 29.44 in 6.0 mi NNE 11.5 mph - N/A   Clear
10:56 AM -20.2 °F -41.3 °F - N/A% 29.44 in 5.0 mi NNE 10.4 mph - N/A   Clear
11:16 AM -22.0 °F -43.6 °F - N/A% 29.43 in 4.0 mi NNE 10.4 mph - N/A   Clear
11:36 AM -22.0 °F -44.7 °F - N/A% 29.43 in 7.0 mi North 11.5 mph - N/A   Clear
11:56 AM -22.0 °F -43.6 °F - N/A% 29.45 in 4.0 mi NNE 10.4 mph - N/A   Scattered Clouds
12:16 PM -20.2 °F -41.3 °F -29.2 °F 63% 29.46 in 5.0 mi North 10.4 mph - N/A   Overcast
12:36 PM -20.2 °F -42.4 °F -27.4 °F 69% 29.45 in 3.0 mi NNE 11.5 mph - N/A   Overcast
12:56 PM -20.2 °F -43.4 °F -29.2 °F 63% 29.44 in 7.0 mi NNE 12.7 mph - N/A   Overcast
1:16 PM -20.2 °F -43.4 °F -22.0 °F 91% 29.43 in 7.0 mi NNE 12.7 mph 17.3 mph N/A   Overcast
1:36 PM -18.4 °F -43.7 °F -27.4 °F 63% 29.43 in 4.0 mi NNE 16.1 mph - N/A   Overcast
1:56 PM -18.4 °F -42.1 °F -29.2 °F 58% 29.43 in 2.0 mi NE 13.8 mph 17.3 mph N/A   Overcast
2:16 PM -18.4 °F -42.9 °F -29.2 °F 58% 29.43 in 1.0 mi NNE 15.0 mph 20.7 mph N/A   Overcast
2:36 PM -18.4 °F -42.1 °F -29.2 °F 58% 29.43 in 1.2 mi NNE 13.8 mph 20.7 mph N/A   Overcast
2:56 PM -18.4 °F -42.1 °F -27.4 °F 63% 29.43 in 1.5 mi NNE 13.8 mph 18.4 mph N/A   Overcast
3:16 PM -18.4 °F -42.1 °F -27.4 °F 63% 29.42 in 1.2 mi NNE 13.8 mph 18.4 mph N/A   Overcast
3:36 PM -18.4 °F -42.1 °F -27.4 °F 63% 29.41 in 1.8 mi NNE 13.8 mph 19.6 mph N/A   Overcast
3:56 PM -18.4 °F -42.1 °F -27.4 °F 63% 29.41 in 2.0 mi NNE 13.8 mph 19.6 mph N/A   Overcast
4:16 PM -18.4 °F -43.7 °F -25.6 °F 70% 29.41 in 2.0 mi NNE 16.1 mph 20.7 mph N/A   Overcast
4:36 PM -16.6 °F -38.9 °F -27.4 °F 58% 29.41 in 2.5 mi NE 12.7 mph 19.6 mph N/A   Overcast
4:56 PM -18.4 °F -44.5 °F -27.4 °F 63% 29.40 in 2.0 mi NNE 17.3 mph 21.9 mph N/A   Overcast
5:16 PM -18.4 °F -43.7 °F -27.4 °F 63% 29.40 in 3.0 mi NNE 16.1 mph 20.7 mph N/A   Overcast
5:36 PM -18.4 °F -42.1 °F -27.4 °F 63% 29.40 in 2.5 mi NNE 13.8 mph 20.7 mph N/A   Overcast
5:56 PM -18.4 °F -42.9 °F -27.4 °F 63% 29.39 in 2.5 mi NNE 15.0 mph 20.7 mph N/A   Overcast
6:16 PM -18.4 °F -42.9 °F -27.4 °F 63% 29.40 in 2.5 mi NNE 15.0 mph - N/A   Overcast
6:36 PM -18.4 °F -42.1 °F -27.4 °F 63% 29.40 in 3.0 mi NNE 13.8 mph 19.6 mph N/A   Overcast
6:56 PM -18.4 °F -42.1 °F -29.2 °F 58% 29.40 in 3.0 mi NNE 13.8 mph - N/A   Overcast
7:16 PM -18.4 °F -42.1 °F -29.2 °F 58% 29.40 in 6.0 mi NNE 13.8 mph - N/A   Scattered Clouds
7:36 PM -18.4 °F -42.9 °F -27.4 °F 63% 29.39 in 9.0 mi NNE 15.0 mph - N/A   Scattered Clouds
7:56 PM -18.4 °F -40.2 °F -29.2 °F 58% 29.39 in 10.0 mi NNE 11.5 mph - N/A   Scattered Clouds
8:16 PM -18.4 °F -41.2 °F -29.2 °F 58% 29.38 in 10.0 mi NNE 12.7 mph - N/A   Partly Cloudy
8:36 PM -20.2 °F -44.4 °F -29.2 °F 63% 29.36 in 10.0 mi NNE 13.8 mph - N/A   Clear
8:56 PM -20.2 °F -43.4 °F -29.2 °F 63% 29.38 in 10.0 mi NNE 12.7 mph - N/A   Clear
9:16 PM -20.2 °F -41.3 °F -29.2 °F 63% 29.38 in 7.0 mi NNE 10.4 mph - N/A   Clear
9:36 PM -20.2 °F -42.4 °F -29.2 °F 63% 29.37 in 8.0 mi NNE 11.5 mph 17.3 mph N/A   Clear
9:56 PM -20.2 °F -43.4 °F -29.2 °F 63% 29.37 in 6.0 mi NNE 12.7 mph - N/A   Partly Cloudy
10:16 PM -20.2 °F -41.3 °F -29.2 °F 63% 29.38 in 4.0 mi NNE 10.4 mph - N/A   Scattered Clouds
10:36 PM -20.2 °F -41.3 °F - N/A% 29.38 in 5.0 mi NNE 10.4 mph - N/A   Clear
10:56 PM -20.2 °F -43.4 °F -29.2 °F 63% 29.38 in 6.0 mi NNE 12.7 mph 17.3 mph N/A   Scattered Clouds
11:16 PM -20.2 °F -41.3 °F -29.2 °F 63% 29.39 in 5.0 mi NNE 10.4 mph - N/A   Mostly Cloudy
11:36 PM -18.4 °F -41.2 °F -29.2 °F 58% 29.40 in 6.0 mi NNE 12.7 mph - N/A   Overcast
11:56 PM -18.4 °F -40.2 °F -27.4 °F 63% 29.41 in 6.0 mi NNE 11.5 mph 19.6 mph N/A   Overcast